Regional Weather Roundup
Issued by NWS

Home | Current Version | Previous Version | Text Only | Print | Product List | Glossary Off
Versions: 1 2 3 4 5 6 7 8 9 10 11 12 13 14 15 16 17 18 19 20 21 22 23 24 25 26 27 28 29 30 31 32 33 34 35 36 37 38 39 40 41 42 43 44 45 46 47 48 49 50

000
ASUS45 KABQ 211701
RWRNM
WEATHER ROUNDUP FOR NEW MEXICO
NATIONAL WEATHER SERVICE ALBUQUERQUE NM
1100 AM MDT SUN SEP 21 2014

NOTE: "FAIR" MEANS FEW OR NO CLOUDS BELOW 12,000 FEET AGL WITH NO
       SIGNIFICANT WEATHER OR OBSTRUCTIONS TO VISION.

      THIS PRODUCT IS RELEASED AS TWO VERSIONS.  ONE VERSION NEAR
      THE TOP OF THE HOUR CONTAINING PRELIMINARY DATA FROM ALBUQUERQUE
      AND OTHER STATIONS.  A FINAL VERSION WITH ADDITIONAL DATA IS
      ISSUED ABOUT 10 MINUTES AFTER THE HOUR.

NMZ501-503-504-510>518-211800-
NORTHWEST PLATEAU/NORTHCENTRAL MOUNTAINS

CITY           SKY/WX    TMP DP  RH WIND       PRES   REMARKS
FARMINGTON     MOSUNNY   76  52  43 E14G22    30.29R
LOS ALAMOS     SUNNY     68  51  54 S8G18     30.44F
SANTA FE       MOSUNNY   76  48  37 SE23G31   30.37S
TAOS           MOSUNNY   73  45  35 E9G20     30.42S
ANGEL FIRE     PTSUNNY   67  45  43 E7        30.53S

$$
NMZ402-403-502-505>509-211800-
WESTCENTRAL MOUNTAINS/SOUTHWEST MOUNTAINS

CITY           SKY/WX    TMP DP  RH WIND       PRES   REMARKS
GALLUP         CLOUDY    67  53  61 CALM      30.35R
GRANTS         MOSUNNY   72  52  49 SE15G24   30.38S
SILVER CITY    MOSUNNY   73  63  68 SE10      30.30R

$$
NMZ407-409-411-412-211800-
SOUTHERN DESERTS

CITY           SKY/WX    TMP DP  RH WIND       PRES   REMARKS
LORDSBURG      FAIR      77  63  61 MISG      30.19S
DEMING         PTSUNNY   76  66  71 E10       30.21R
LAS CRUCES     PTSUNNY   76  62  61 NE3       30.23S
HOLLOMAN AFB   PTSUNNY   77  64  63 S3        30.19S
ALAMOGORDO     PTSUNNY   75  64  69 S7        30.21F
T OR C         PTSUNNY   76  62  62 N10       30.25R

$$
NMZ519>523-211800-
CENTRAL VALLEYS/CENTRAL HIGHLANDS

CITY           SKY/WX    TMP DP  RH WIND       PRES   REMARKS
ALBUQUERQUE    PTSUNNY   76  53  44 SE20      30.32S
DOUBLE EAGLE   MOSUNNY   73  54  49 E17G26    30.36S
CLINES CORNERS PTSUNNY   65  54  67 E20G30    30.42S
BELEN          PTSUNNY   75  54  47 W5        30.30S
SOCORRO        FAIR      76  58  54 NE7       30.28S

$$
NMZ524>526-539-540-211800-
SOUTHCENTRAL MOUNTAINS

CITY           SKY/WX    TMP DP  RH WIND       PRES   REMARKS
RUIDOSO        NOT AVBL

$$
NMZ527>531-211800-
NORTHEAST HIGHLANDS/NORTHEAST PLAINS

CITY           SKY/WX    TMP DP  RH WIND       PRES   REMARKS
LAS VEGAS      PTSUNNY   65  55  70 E9        30.45F
RATON          MOSUNNY   71  51  49 E7        30.41F
CLAYTON        SUNNY     70  55  59 E17       30.38S

$$
NMZ532>537-211800-
EASTCENTRAL PLAINS

CITY           SKY/WX    TMP DP  RH WIND       PRES   REMARKS
TUCUMCARI      PTSUNNY   76  60  57 NE9       30.29S
CANNON AFB     MOSUNNY   77  60  54 NE15      30.27F
CLOVIS AIRPORT   N/A     77  63  61 NE12G17   30.29F

$$
NMZ028-029-538-211800-
SOUTHEAST PLAINS

CITY           SKY/WX    TMP DP  RH WIND       PRES   REMARKS
ROSWELL        TSTM      67  65  93 S12G25    30.24R VSB 1/2
CARLSBAD       LGT RAIN  70  32  24 E10       30.18R
HOBBS          LGT RAIN  66  66 100 E3        30.23S FOG


$$



USA.gov is the U.S. government's official web portal to all federal, state and local government web resources and services.